Theta_e
347 347 347 346 346 345 345 345 343 339 335 334 333 331 330 329 331 334 334 333 334 335 335 338 341 343 346 348 349 350 347 343 345 345 343 343 343 344 348 346 344 346 347 348 350 348 342 338 336 335 337 342 345 348 349 349 349 349 350 349 348 348 343 341 350 355 353 349 346 348 346 339 345 344 334 343 346 334 329 328 331 340 344 346 347
348 347 347 347 346 345 345 345 345 343 339 336 334 333 332 329 328 330 331 330 330 331 332 335 336 338 345 347 348 350 348 344 345 347 345 345 344 344 346 344 343 345 345 347 349 347 343 340 338 337 337 336 338 344 348 348 349 349 349 349 350 351 348 341 344 351 355 353 347 348 347 340 341 341 333 335 337 332 330 328 337 349 343 341 352
349 347 347 347 346 346 346 345 345 345 343 339 336 336 336 332 328 328 329 330 329 328 329 332 332 333 340 343 342 344 346 343 344 347 346 345 344 346 349 347 344 343 343 343 345 346 345 342 340 342 344 342 338 341 346 348 349 349 349 350 350 351 350 343 338 343 351 353 347 347 350 342 336 336 332 332 333 332 334 332 336 344 338 339 352
352 349 347 347 347 346 346 346 345 345 345 344 340 340 341 339 333 329 329 332 333 329 327 328 330 329 334 339 339 340 343 342 343 344 343 343 342 342 343 344 344 344 343 343 345 345 345 343 343 345 348 348 342 341 344 346 347 348 348 347 344 344 347 343 335 335 341 345 343 341 341 335 332 333 332 332 334 332 333 334 334 336 334 337 350
352 351 347 346 347 347 346 346 345 345 345 346 345 344 344 344 341 335 331 334 337 335 329 326 328 328 329 333 336 338 340 340 341 341 340 338 335 334 335 336 337 341 342 342 344 343 343 343 343 345 348 348 344 345 347 345 342 343 345 346 344 342 342 338 334 335 335 337 339 337 335 335 334 332 331 332 336 337 337 337 336 334 331 334 346
351 351 349 348 347 346 346 346 346 346 345 346 347 347 347 347 346 341 334 334 338 340 335 328 326 328 328 329 331 335 339 339 338 337 337 338 335 333 336 336 332 333 336 338 341 342 341 341 342 344 345 345 345 347 348 343 339 339 339 341 342 341 337 334 332 334 335 334 336 339 343 346 342 336 333 330 331 336 340 343 346 346 341 337 338
350 351 351 351 348 346 346 346 346 346 345 345 347 348 348 348 348 346 340 336 337 341 341 334 328 326 327 327 328 331 336 338 337 333 332 336 336 333 337 340 337 335 334 336 341 345 345 343 341 341 341 341 342 344 344 340 337 336 333 332 335 334 333 337 338 338 339 340 342 347 352 353 349 342 337 330 327 332 340 347 352 352 349 343 338
351 350 351 351 349 347 347 346 346 345 346 345 345 347 348 348 347 347 345 341 338 340 343 341 335 329 328 328 327 328 330 333 335 331 327 329 331 329 330 335 339 341 339 338 340 345 348 348 346 345 342 339 338 340 342 341 339 336 333 332 332 332 333 340 343 342 343 345 348 350 351 349 345 342 340 339 339 344 350 353 352 349 349 349 346
350 351 351 350 348 347 347 347 346 345 345 346 345 346 346 347 347 346 345 344 343 342 342 343 342 338 331 328 328 328 328 329 328 328 326 326 327 328 327 326 331 337 339 339 342 345 347 348 349 349 345 338 336 336 338 340 339 338 336 333 333 333 334 337 338 337 338 341 345 348 349 350 348 347 350 352 352 352 351 350 350 349 351 352 350
351 351 351 351 349 347 346 346 346 346 346 345 346 346 345 346 347 346 345 345 345 345 344 343 344 344 338 331 328 328 328 328 326 326 326 325 325 327 327 326 326 329 330 332 337 342 345 346 348 348 342 335 335 336 335 336 336 337 336 334 334 335 335 335 336 336 336 340 345 349 351 352 351 348 349 351 352 352 351 350 351 352 353 352 351
352 351 351 352 352 350 348 346 345 346 346 346 346 346 346 346 346 346 345 345 345 345 346 345 344 346 345 339 333 329 328 327 327 326 326 326 326 326 326 325 325 326 325 326 328 334 340 343 346 346 340 333 333 336 335 335 335 335 335 335 335 334 335 335 335 336 338 341 347 351 352 353 351 346 343 345 348 352 353 351 347 346 349 352 353
351 353 352 352 352 352 350 348 347 345 345 346 346 346 345 345 345 346 345 346 346 345 346 346 345 346 347 347 343 337 331 327 327 327 326 326 326 326 326 326 326 327 327 326 325 327 331 336 341 346 345 338 333 333 335 335 334 334 334 334 335 335 335 335 335 335 337 340 345 349 349 350 349 345 342 343 344 348 349 347 341 340 346 349 350
350 352 353 352 351 349 348 348 349 349 346 345 345 346 345 345 346 346 346 345 346 346 346 346 347 346 346 347 348 346 341 333 327 325 326 327 326 326 326 326 328 329 329 328 328 326 325 328 332 337 344 344 337 331 333 335 335 335 335 334 335 335 334 334 334 335 335 336 340 343 343 341 338 336 336 336 334 336 338 338 339 340 344 347 347
349 350 351 353 353 351 349 348 348 348 348 346 346 345 346 346 346 346 346 347 346 346 347 347 346 347 347 347 347 348 348 344 336 328 325 325 326 326 326 326 327 329 329 329 329 328 326 325 325 326 332 338 336 331 331 333 334 335 335 335 335 334 334 334 334 334 335 335 336 337 336 335 332 329 331 332 332 333 333 334 338 341 345 346 344
349 350 350 351 353 353 353 351 349 347 347 347 347 347 346 347 347 347 348 349 349 347 347 347 347 347 347 348 348 348 349 349 346 340 333 329 327 326 326 326 326 327 327 326 327 327 325 325 325 324 325 327 328 329 330 332 333 334 335 335 335 335 335 335 334 334 335 335 336 336 335 333 332 331 332 333 334 334 334 334 337 339 341 341 338
345 349 350 351 352 353 353 354 353 351 349 349 349 350 350 348 347 347 348 351 353 352 349 347 348 348 348 348 348 349 350 351 351 350 346 342 339 336 332 330 328 326 326 325 325 325 324 324 324 324 324 324 325 327 330 331 332 333 334 335 335 336 336 336 335 334 335 336 335 335 335 335 334 333 333 335 335 334 335 334 335 340 344 344 342
338 344 348 350 352 353 353 353 353 354 354 353 353 354 354 353 351 349 348 349 353 354 352 350 348 348 349 348 349 349 350 351 352 353 352 351 350 348 344 340 335 330 327 326 326 325 324 324 324 324 324 324 325 327 329 330 331 332 333 333 334 335 337 339 338 335 334 336 336 335 334 334 335 334 332 334 333 333 336 334 334 343 351 353 352
334 336 341 345 349 351 353 352 353 354 355 356 356 356 356 357 356 354 351 351 352 353 354 354 352 351 350 350 350 350 351 352 352 353 354 354 354 353 352 349 345 339 335 332 330 328 325 324 324 324 325 325 325 327 329 330 331 331 332 333 333 333 335 339 342 341 338 334 333 335 335 333 334 334 332 333 333 333 335 334 333 343 351 353 354
333 333 335 338 343 347 349 351 353 353 354 356 358 357 355 356 357 357 356 355 354 354 355 356 355 355 354 353 352 352 352 353 354 354 354 355 355 354 354 354 352 349 345 340 336 333 330 326 325 324 325 325 326 328 330 330 331 331 332 333 333 332 335 339 342 345 347 343 334 332 334 333 334 334 333 333 334 334 335 334 333 339 347 350 352
331 332 333 334 337 340 343 347 350 352 353 355 357 357 356 356 356 357 357 357 356 356 356 356 356 357 357 356 355 355 355 355 355 355 356 355 356 356 356 356 355 353 351 348 344 341 336 332 329 326 325 326 328 330 332 332 331 331 332 333 333 332 336 343 345 345 348 348 341 335 335 335 334 334 334 332 333 333 334 334 334 335 340 347 351
329 331 332 332 332 334 336 339 343 347 350 353 355 356 356 356 356 356 356 357 358 357 357 357 357 357 358 358 358 357 357 357 357 357 357 357 358 358 357 357 357 356 355 353 351 350 347 342 336 330 328 328 330 332 334 333 332 333 332 333 333 331 333 342 347 348 346 343 340 340 341 341 339 339 339 338 337 336 334 333 333 334 338 346 351
328 328 329 329 330 330 331 332 335 340 344 348 350 353 355 357 356 355 355 356 357 357 357 358 358 359 359 359 360 359 359 358 358 358 359 359 359 359 359 359 359 358 358 356 355 355 354 352 346 338 334 332 332 334 335 335 334 335 333 332 333 333 334 336 341 346 347 346 346 349 350 350 350 350 350 349 348 348 346 342 339 338 339 344 349
326 327 327 328 329 329 329 330 331 332 336 340 343 346 349 353 355 356 356 356 356 355 355 357 358 359 359 360 360 361 361 360 360 360 360 360 360 360 360 360 360 360 359 359 357 357 356 356 353 346 339 336 335 335 336 337 337 336 335 334 333 333 336 338 339 342 344 347 351 354 354 354 355 355 355 353 352 353 354 352 349 348 345 344 346
324 326 327 328 328 326 326 328 330 330 330 331 334 337 341 346 352 356 357 357 356 354 354 354 356 357 359 360 360 361 362 362 361 360 359 360 361 361 361 361 361 361 361 360 360 358 357 356 354 350 343 339 338 337 337 339 339 338 336 336 336 337 340 342 341 341 343 346 348 350 351 352 353 353 355 355 354 354 355 354 353 352 352 351 348
321 323 325 326 327 325 324 324 327 330 329 328 329 334 339 344 349 354 356 357 357 356 355 355 354 355 358 359 359 359 360 363 363 361 360 359 360 361 361 361 362 362 362 361 361 360 359 357 354 351 346 343 342 341 340 339 339 340 339 338 340 342 344 344 342 342 344 346 348 348 347 347 346 346 348 351 352 351 351 351 350 349 350 351 349
320 321 323 324 325 326 327 325 323 327 330 329 329 334 340 344 347 351 355 357 357 357 358 357 356 355 355 356 358 358 359 360 361 361 361 361 360 361 361 361 362 362 362 362 362 361 360 359 357 354 351 349 346 344 343 341 340 340 341 342 344 344 344 344 343 343 344 346 348 349 347 345 345 347 348 348 349 348 347 347 348 348 347 349 348
318 319 321 323 324 326 329 329 324 321 327 331 330 331 336 341 345 349 353 355 355 356 358 358 358 356 354 351 353 356 357 359 360 361 362 362 361 360 361 361 361 361 361 362 362 362 362 361 360 358 356 354 352 349 347 345 344 343 343 344 344 344 344 344 343 344 345 346 347 348 347 346 349 351 351 350 349 349 348 348 349 349 349 351 352
317 318 319 321 323 324 328 330 328 322 322 329 332 331 330 334 341 345 349 353 354 355 356 357 357 356 353 350 351 354 357 358 359 360 362 363 362 360 360 361 361 361 361 362 362 362 362 361 361 360 359 358 356 355 352 350 347 346 345 345 345 344 345 345 346 346 347 347 347 347 348 350 351 352 352 353 353 353 352 351 350 351 351 353 354
316 317 318 319 321 323 326 329 330 329 324 324 331 334 331 330 334 338 342 347 350 352 353 355 356 356 355 352 350 353 356 359 358 358 360 362 363 362 360 359 360 360 360 361 361 361 362 362 362 361 360 359 357 356 355 353 352 349 347 346 346 346 346 346 347 347 347 347 347 347 349 350 351 351 353 354 354 354 353 351 351 353 355 355 354
315 317 318 318 319 322 323 325 328 330 328 324 325 331 333 332 331 332 335 339 343 346 348 350 352 354 356 356 354 354 357 359 359 357 358 360 362 363 361 360 359 359 359 359 360 360 360 361 361 361 359 358 358 357 356 356 355 353 351 349 348 347 347 348 347 347 347 347 347 349 349 350 350 352 353 353 352 352 352 352 353 355 356 356 355
316 316 317 318 318 320 321 323 326 328 329 328 324 325 330 333 332 332 333 334 337 340 341 342 345 347 350 352 352 354 357 359 360 359 359 360 360 362 363 362 361 360 360 359 359 359 360 360 360 360 359 358 358 358 358 357 357 356 355 354 353 350 349 349 348 349 349 348 348 350 351 351 351 352 353 354 353 352 352 354 356 356 356 356 355
318 316 316 317 318 318 319 322 325 326 327 328 327 324 324 328 331 332 332 332 333 334 335 337 341 343 344 344 343 345 351 356 358 359 359 360 361 362 362 362 362 361 360 360 360 360 360 360 359 359 359 359 359 359 359 358 358 357 357 357 357 356 354 352 351 350 349 350 351 351 351 351 352 352 353 354 354 352 351 354 356 356 356 357 354
319 317 316 317 318 318 318 320 323 324 324 325 327 326 325 325 327 329 330 331 331 331 333 335 337 340 343 344 344 346 350 354 357 357 358 359 360 361 361 362 362 362 361 361 361 360 360 359 359 359 359 359 359 359 359 359 359 358 358 358 358 358 358 357 356 354 353 352 354 355 355 354 353 353 353 353 353 353 352 354 355 356 356 357 356
319 318 317 317 318 318 318 318 320 321 322 322 324 326 327 327 325 325 327 329 330 330 332 334 336 337 340 342 345 348 352 356 359 359 359 360 360 361 361 361 362 361 361 361 361 361 360 360 359 359 359 360 360 360 359 359 359 359 359 359 359 359 359 359 359 359 358 356 356 356 357 356 356 355 354 354 354 354 354 355 356 356 356 357 357
320 319 318 318 318 318 318 318 318 319 321 322 322 324 325 327 327 326 325 327 328 329 331 332 334 336 337 339 342 345 348 353 357 360 361 361 361 362 362 362 362 361 360 361 361 361 361 360 360 360 360 360 360 360 360 360 360 359 359 360 359 359 359 360 360 360 360 359 358 358 357 357 356 356 355 356 356 357 357 357 357 356 356 357 357
319 319 319 319 318 318 317 317 317 318 320 321 322 322 323 325 326 327 326 326 327 328 330 332 332 334 335 336 338 340 342 346 350 354 358 360 361 362 362 362 362 360 359 360 361 361 361 360 360 360 361 361 360 361 361 361 361 361 360 360 360 360 360 360 360 360 359 358 358 358 358 358 358 356 355 356 357 357 357 357 356 355 356 356 357
318 318 318 318 318 318 317 317 317 317 319 321 321 322 323 324 326 327 327 326 325 326 329 331 332 331 333 333 335 339 343 345 345 347 351 356 360 362 362 361 361 361 360 360 360 361 361 361 361 361 360 361 361 361 361 361 361 361 361 361 361 361 361 361 361 360 360 360 359 358 357 358 358 358 356 356 357 357 356 356 356 356 356 356 355
317 317 317 317 317 317 316 316 316 317 318 320 321 321 322 324 325 326 327 326 325 325 327 330 331 331 331 331 332 336 341 344 345 346 347 350 354 359 361 362 362 361 360 360 360 360 361 361 360 360 360 361 361 361 361 362 361 362 362 362 362 363 363 362 361 360 360 360 360 359 359 358 358 358 358 357 357 357 356 356 356 356 356 356 353
316 316 316 316 317 316 315 315 316 316 318 319 321 321 321 322 323 325 326 326 326 327 328 330 332 331 331 332 332 333 335 339 344 347 348 349 350 353 356 359 361 362 362 362 361 361 361 361 360 360 360 360 361 361 362 362 361 361 362 362 362 363 363 363 363 362 361 359 359 359 360 359 357 358 358 357 356 356 355 356 356 356 356 356 353
315 315 315 315 316 316 316 316 317 318 318 320 320 321 321 322 322 324 325 326 327 328 328 330 332 333 332 332 333 333 333 335 339 343 346 348 349 350 352 354 356 358 361 362 362 361 361 361 361 361 360 360 361 361 362 362 361 362 363 363 363 363 363 364 364 363 362 361 360 360 360 360 358 358 357 356 356 355 355 355 356 356 356 356 355
313 313 314 315 315 315 316 317 318 319 319 320 321 321 321 322 322 323 324 325 326 327 328 329 331 332 332 332 332 333 333 334 335 338 340 343 346 349 350 351 352 354 355 358 360 360 361 361 362 361 361 361 360 361 362 362 362 362 363 363 363 363 363 363 363 362 361 362 361 360 360 360 359 358 357 355 355 355 355 355 355 355 355 355 355
311 312 313 314 314 315 316 317 318 318 319 320 320 321 321 322 322 323 324 325 326 326 327 328 330 330 330 330 331 331 332 334 335 336 337 339 342 345 348 349 350 351 352 353 355 357 358 360 361 361 361 361 361 361 361 361 362 363 363 364 363 362 362 362 362 362 362 361 361 361 361 360 359 359 357 355 354 355 355 355 355 354 354 355 355
310 311 312 313 313 314 315 316 317 317 318 319 320 320 321 322 323 324 325 325 326 327 327 328 329 330 330 330 330 331 331 333 334 336 337 338 340 343 345 347 348 350 350 351 351 352 353 355 356 357 358 360 361 361 361 361 361 362 362 363 363 361 361 361 361 360 360 360 360 360 360 360 360 360 358 357 355 355 355 355 355 354 354 355 355
310 311 311 312 312 312 313 315 315 316 317 318 319 320 321 322 323 324 325 325 325 326 326 327 327 328 329 330 331 331 330 331 332 334 336 338 340 342 344 346 347 348 350 350 351 352 353 353 353 353 354 355 357 358 360 360 361 361 361 361 360 360 359 359 358 358 359 359 359 359 359 358 359 360 359 359 357 356 356 356 355 354 355 355 354
309 309 310 310 311 312 313 314 314 315 316 317 319 320 321 322 323 323 324 325 325 325 325 325 324 324 325 328 329 329 329 329 331 333 335 337 339 341 343 344 346 347 348 349 350 351 352 353 353 353 354 354 355 356 357 358 359 360 359 359 359 358 357 357 357 358 359 359 359 359 358 357 357 358 359 359 358 357 357 356 355 355 355 355 354
308 308 309 310 311 312 313 314 314 314 315 316 318 319 319 320 322 323 324 324 324 324 324 323 322 322 322 324 326 326 327 328 329 332 334 336 338 340 341 343 344 345 346 347 348 349 350 351 352 353 353 354 354 355 355 356 357 357 357 357 357 357 357 357 358 358 358 358 358 357 357 356 356 356 356 357 357 357 357 356 356 356 355 355 355
307 308 309 310 311 312 313 313 314 314 314 315 316 317 318 318 319 321 322 323 323 322 321 320 320 320 321 322 323 323 324 325 327 329 332 334 336 338 339 341 342 343 344 345 346 348 349 350 350 351 351 352 352 352 353 354 354 354 355 355 355 356 356 356 357 357 357 357 357 356 355 355 355 354 355 356 357 357 357 356 356 355 354 354 355
307 307 308 308 309 309 310 312 313 313 313 314 315 316 316 316 316 316 318 320 321 321 320 319 318 317 318 320 321 321 322 323 325 327 328 330 332 334 336 338 339 341 342 343 344 345 347 348 348 349 350 350 351 351 352 353 353 353 354 355 355 356 356 356 356 356 356 356 356 355 354 354 354 354 355 355 355 356 356 355 354 354 353 354 355
306 307 306 306 307 307 308 309 311 312 312 313 314 314 315 315 314 313 315 317 318 318 318 318 316 315 316 317 318 319 319 320 321 323 324 325 327 329 331 333 335 336 338 339 340 342 343 344 346 347 348 349 350 351 352 352 353 353 354 354 354 355 355 355 356 356 356 355 355 354 353 352 353 353 353 354 355 355 354 354 354 353 353 353 354
305 306 305 305 305 306 306 308 309 310 310 311 312 313 314 314 313 312 313 314 314 314 314 314 314 314 314 314 314 315 316 317 318 318 319 321 323 324 326 328 329 331 332 333 335 336 337 338 340 342 343 345 347 348 350 351 352 353 353 354 354 354 355 355 355 356 356 355 354 353 351 350 350 350 351 352 353 353 352 352 352 351 351 352 352
303 304 304 304 304 305 305 306 307 307 308 309 310 311 311 312 312 311 311 312 312 311 310 310 310 310 312 312 312 312 313 314 314 315 315 316 318 319 321 322 323 324 326 327 328 329 331 332 333 335 337 339 341 343 345 347 348 350 351 352 352 353 354 354 354 354 354 354 353 351 348 346 346 347 348 348 349 349 349 348 348 347 348 350 351
Wind_Speed
28 28 26 26 26 25 24 22 21 20 21 23 23 22 22 21 20 20 19 19 19 19 18 18 18 17 15 14 13 13 13 13 13 12 12 11 11 10 11 11 10 9 10 9 9 10 10 10 11 12 13 13 11 10 9 9 9 8 8 8 7 7 8 6 5 6 5 4 5 6 7 7 7 10 11 8 11 15 15 16 17 14 12 15 20
28 28 27 28 27 26 25 24 23 22 21 22 22 23 23 23 22 21 21 20 19 19 19 19 20 19 18 17 16 16 15 14 14 14 13 12 12 11 11 11 10 11 11 10 10 10 10 10 10 11 12 13 13 12 10 10 10 10 9 9 7 7 9 8 7 6 6 6 6 6 7 8 8 10 11 11 12 14 15 15 12 11 12 13 15
26 27 27 28 27 26 26 26 25 24 23 23 23 23 23 24 24 23 22 21 20 20 20 20 20 21 20 20 19 18 17 16 15 15 15 14 13 12 12 12 11 11 12 12 11 11 11 11 10 10 11 12 12 12 12 11 11 11 11 10 9 9 9 10 9 8 8 8 8 7 7 9 10 10 12 12 14 14 14 14 12 12 15 13 10
23 26 27 27 27 27 27 27 26 26 25 25 24 24 24 23 24 24 23 22 22 22 21 21 21 21 21 22 22 21 20 19 17 17 17 15 14 13 13 13 13 12 13 13 13 13 12 12 12 12 12 12 12 11 12 13 13 13 13 13 13 12 12 12 11 11 11 11 11 10 10 11 11 11 12 12 14 15 14 15 14 14 16 13 9
22 24 25 26 27 28 28 28 28 27 27 27 26 24 24 23 24 25 24 24 23 23 23 22 22 22 22 23 23 23 23 22 20 19 18 17 16 15 14 14 14 13 14 14 14 14 14 14 13 13 13 13 12 11 12 13 14 14 14 14 14 14 14 13 12 12 13 13 13 14 14 13 12 11 12 12 13 15 15 16 16 16 17 14 9
22 22 23 23 25 27 28 29 29 28 28 28 27 26 25 24 24 25 25 25 25 24 24 24 24 23 23 23 24 24 25 25 23 21 20 19 18 16 15 15 14 14 14 14 15 15 15 15 15 14 15 15 14 13 13 13 13 13 14 14 14 15 14 14 14 14 14 15 15 15 14 13 13 13 13 14 14 14 14 14 13 14 15 14 12
21 23 22 22 23 25 26 27 29 29 29 28 27 27 26 26 25 25 25 26 26 25 25 26 26 25 24 24 24 25 25 26 26 24 22 21 20 18 17 16 16 15 15 15 15 16 16 16 16 16 17 17 16 15 15 14 13 13 13 14 14 15 14 14 14 14 15 15 15 14 12 12 13 14 14 15 16 15 14 11 10 11 13 15 16
20 22 23 23 23 23 23 25 26 28 29 29 29 29 28 27 27 27 27 26 26 26 26 25 26 27 26 26 26 26 27 28 28 27 25 24 22 21 20 18 17 17 16 15 15 16 17 17 17 17 18 18 18 17 16 16 15 14 14 14 14 15 15 14 15 15 15 15 15 14 14 15 16 15 14 14 14 12 11 11 11 13 13 14 15
20 21 22 25 26 25 23 23 25 26 28 29 29 30 30 30 29 29 29 28 27 27 27 26 26 27 28 28 28 28 29 30 30 30 29 27 26 24 23 21 20 19 19 18 17 17 17 18 18 18 19 20 19 18 18 18 18 17 16 17 17 17 17 17 17 18 18 17 17 16 15 15 15 14 12 11 11 11 11 12 13 14 13 14 15
18 20 21 23 26 28 27 26 25 26 27 28 28 29 30 31 31 31 31 30 29 28 28 28 28 28 29 31 31 31 31 32 33 32 31 30 29 27 26 25 23 22 22 21 20 19 18 18 18 20 21 21 20 19 20 20 20 19 19 20 20 19 20 20 20 20 20 19 18 16 15 14 13 12 12 12 12 12 12 13 14 14 14 14 15
14 17 18 20 21 24 28 29 28 27 27 27 28 28 29 30 32 33 33 32 31 31 30 31 31 30 30 31 32 33 34 35 35 34 33 32 31 30 29 28 26 26 25 25 24 22 20 19 19 20 22 23 22 21 21 22 22 22 22 22 22 22 22 22 22 22 21 20 19 17 15 15 15 15 14 13 12 12 12 14 16 17 16 16 15
12 12 14 18 20 21 25 27 28 29 29 28 28 28 29 30 31 32 33 33 33 33 32 32 33 32 32 32 33 34 36 37 37 36 35 34 34 33 32 30 30 29 28 28 27 25 24 22 20 20 21 23 23 23 23 23 23 23 23 23 24 24 24 24 24 24 23 22 21 19 18 17 17 17 16 15 15 15 15 17 19 19 18 18 17
12 11 12 15 19 22 25 25 24 25 28 29 29 29 30 30 30 31 32 32 33 34 34 33 33 34 34 34 34 35 36 37 38 38 37 36 35 35 34 33 32 31 30 30 29 29 28 26 25 23 21 22 25 25 24 24 24 23 24 25 25 26 26 26 26 25 25 25 25 24 23 22 22 21 20 20 21 21 21 21 21 21 20 20 20
12 14 15 14 15 20 24 25 24 23 24 27 29 31 31 30 29 29 30 32 33 33 33 34 34 34 34 36 36 36 36 37 38 38 38 38 37 36 36 35 35 34 34 33 32 32 31 30 29 28 25 25 27 27 26 25 26 25 26 26 27 27 27 27 27 27 27 28 28 28 27 26 25 24 24 24 24 24 24 23 22 21 21 21 23
9 13 16 16 16 17 19 21 22 24 26 27 28 29 30 30 29 29 29 30 32 33 32 32 34 34 34 35 36 37 37 37 38 37 37 37 37 37 37 37 37 38 37 37 36 35 34 33 32 31 30 29 29 29 27 26 27 27 28 28 29 29 29 29 29 29 29 29 30 29 28 27 27 26 26 26 26 25 24 24 23 23 23 24 26
8 9 13 16 18 19 18 18 19 22 25 26 26 26 27 29 30 30 30 29 29 31 32 32 32 34 35 35 36 37 37 37 37 36 36 35 34 36 37 38 39 39 40 40 39 38 37 36 35 34 33 32 31 30 29 28 28 29 29 30 30 30 31 31 31 30 30 30 30 30 29 28 29 29 28 27 27 26 25 25 25 24 23 24 25
8 8 9 13 18 20 21 21 21 21 22 23 24 24 24 25 27 30 32 32 30 30 31 32 32 33 34 35 36 37 37 37 36 35 34 33 32 33 35 37 39 40 41 41 40 40 40 39 38 36 35 34 33 32 30 30 30 31 31 31 32 31 31 30 30 31 31 30 30 31 30 30 30 31 30 29 28 27 26 28 28 23 20 19 21
10 8 8 10 14 19 22 23 24 24 22 22 23 24 24 24 25 27 30 31 31 30 30 30 32 32 33 34 36 36 36 36 37 36 34 33 33 33 34 36 38 40 41 41 41 41 42 41 40 39 37 36 35 33 32 31 32 32 32 32 33 33 33 30 28 29 31 32 32 31 31 32 31 31 31 31 30 29 28 30 29 23 20 20 19
13 12 9 9 11 14 19 23 26 27 26 22 22 25 27 26 26 26 28 29 30 29 29 29 30 30 32 33 33 35 35 34 36 36 35 33 33 33 33 35 36 38 40 41 41 42 43 43 43 41 39 38 36 35 34 33 33 34 33 33 34 35 33 30 28 27 27 30 33 33 32 32 31 32 33 32 31 30 30 31 30 26 24 23 21
12 13 12 10 9 11 14 18 22 27 30 28 24 24 27 29 27 27 27 27 28 28 27 28 29 29 29 30 31 33 34 33 34 35 34 34 33 33 34 35 36 38 39 40 41 43 43 44 44 43 41 39 37 37 35 34 34 34 34 34 35 36 32 28 27 27 26 28 31 32 32 31 31 32 33 33 33 32 32 31 30 30 28 26 23
11 11 13 13 10 10 12 15 18 21 26 31 31 28 27 27 28 28 26 24 26 28 27 27 28 29 29 29 30 31 32 33 34 34 33 33 32 32 33 35 35 36 38 40 41 41 41 43 44 44 42 40 38 37 37 36 35 35 35 36 36 35 33 28 26 26 28 30 31 31 30 30 31 31 31 31 32 32 32 32 31 30 29 27 23
12 11 11 13 14 12 11 13 16 18 20 24 28 30 30 30 29 29 28 25 26 28 28 26 26 28 29 29 29 30 31 32 33 34 33 32 32 32 32 33 33 33 36 38 39 37 36 38 42 43 42 40 38 37 37 36 35 35 36 37 36 35 33 31 28 26 27 29 29 27 26 26 27 27 27 27 26 26 27 29 29 28 29 28 25
12 12 11 12 15 16 15 14 14 16 17 18 21 23 27 31 31 29 29 29 28 27 28 28 28 29 30 30 29 29 30 32 33 34 34 32 31 32 32 31 30 31 33 36 37 34 30 30 36 40 41 39 38 37 36 35 35 36 36 36 36 35 32 31 30 29 29 29 27 25 24 24 24 24 25 25 24 23 23 24 25 25 26 27 26
14 13 12 12 13 17 19 18 16 15 16 17 19 20 21 24 28 28 27 29 30 29 29 30 31 32 32 32 31 29 28 29 31 33 35 34 32 31 31 30 29 30 32 33 33 31 28 27 30 36 39 39 37 36 35 34 34 36 36 36 35 34 32 30 31 31 32 32 31 30 29 28 27 26 26 25 24 23 23 24 24 24 24 26 27
19 16 14 14 13 15 19 21 20 18 16 16 17 17 16 18 25 28 27 27 28 29 29 28 29 32 34 34 33 32 29 27 28 30 33 34 34 33 31 29 28 29 31 31 31 30 29 29 30 33 37 37 36 35 35 35 35 36 36 36 35 33 32 32 32 33 34 34 33 33 33 33 33 32 30 28 26 25 26 27 27 27 26 26 28
23 20 18 17 16 14 16 20 23 22 19 16 15 14 14 16 20 24 25 25 24 26 27 27 26 28 32 34 36 35 32 30 30 30 30 31 32 33 32 29 28 28 29 29 29 28 29 29 30 32 33 34 34 34 34 35 36 36 36 35 35 35 35 35 35 36 37 37 35 34 35 35 34 33 32 31 29 28 29 28 28 27 26 26 27
25 24 23 21 19 16 14 16 20 23 22 19 17 16 16 16 17 19 20 20 19 21 25 27 27 27 29 32 36 37 35 33 32 30 28 28 30 31 31 29 27 27 28 28 28 28 28 28 28 29 30 31 32 33 33 34 35 36 37 37 38 38 38 38 38 38 38 38 37 36 36 36 33 32 31 30 30 30 29 28 27 27 26 24 24
25 25 25 24 22 20 16 15 17 21 23 22 20 18 18 18 18 18 19 19 18 18 21 24 27 28 29 30 32 34 36 37 35 30 26 27 28 28 29 30 28 27 28 28 27 27 27 27 28 28 29 31 32 32 33 34 36 37 38 39 40 41 41 40 39 39 39 39 39 39 38 36 35 35 33 30 27 26 26 27 27 26 24 23 23
25 25 25 25 25 23 20 17 15 16 19 22 22 19 19 20 21 20 20 21 22 22 22 23 25 26 27 29 32 34 35 36 36 32 27 26 27 25 25 25 23 23 23 23 23 25 26 28 30 31 31 31 31 30 29 30 33 36 39 41 41 42 42 42 43 43 42 41 41 41 41 39 38 37 36 33 29 26 25 27 27 24 22 23 23
26 26 25 25 25 25 24 22 18 15 16 19 22 22 19 19 21 22 21 21 23 26 29 30 29 28 28 30 32 33 33 33 33 32 27 25 26 24 22 20 19 17 16 17 19 22 25 28 30 32 31 29 27 26 26 25 27 31 35 39 42 43 44 44 45 45 45 44 44 43 42 41 41 40 39 37 34 31 29 29 28 26 25 24 24
24 26 25 25 26 26 26 25 21 17 15 16 20 24 23 19 19 21 22 21 21 24 28 32 33 33 34 35 36 37 36 34 33 32 28 24 23 23 22 22 22 18 16 16 19 22 25 27 29 30 29 27 27 27 26 27 28 29 29 31 36 40 43 45 46 45 45 46 46 45 43 42 42 40 40 39 38 37 34 31 28 27 26 26 26
20 24 25 25 26 27 27 23 19 18 19 17 17 22 26 24 21 19 20 20 20 21 24 27 30 33 35 38 40 43 43 41 40 39 35 30 28 27 26 25 23 20 18 19 22 24 26 27 28 29 27 26 27 28 27 27 30 30 29 28 30 32 36 40 42 44 46 46 45 44 44 44 42 40 39 39 39 40 38 35 32 29 26 25 27
18 22 24 25 25 26 27 25 22 22 25 23 19 19 24 28 28 25 23 21 20 20 21 22 23 26 29 32 36 40 42 41 41 42 41 38 36 34 32 28 25 22 22 24 26 28 28 27 27 28 27 26 27 29 29 29 30 30 30 31 30 29 30 31 34 37 41 42 41 40 39 40 40 40 40 40 40 40 39 38 37 34 29 26 27
18 20 22 23 24 26 27 27 27 27 28 27 24 20 21 25 28 30 30 28 26 24 23 22 22 22 23 25 29 33 36 36 34 34 35 35 35 35 34 32 28 26 26 28 29 30 30 26 23 24 26 26 26 28 29 29 30 30 31 32 32 31 29 29 29 30 30 32 34 36 36 36 36 37 38 39 39 38 38 36 34 32 31 29 26
16 18 20 21 23 25 26 27 28 28 28 28 27 24 22 23 25 28 31 33 32 30 29 27 26 25 24 24 26 29 33 34 33 31 29 28 29 30 32 33 32 31 31 31 31 32 32 29 24 23 24 25 26 28 29 30 30 30 30 31 31 31 30 30 31 29 26 26 28 31 33 34 36 38 38 37 35 33 33 33 31 31 32 31 28
16 17 18 19 21 23 25 26 27 27 27 28 28 27 25 24 24 26 29 31 33 35 34 31 29 28 27 25 25 26 28 29 31 31 29 27 25 27 30 33 34 34 34 34 34 34 34 33 31 28 25 24 27 29 29 31 32 32 32 32 31 31 32 32 33 33 33 32 31 31 30 30 32 35 39 39 36 32 31 31 31 32 32 31 28
19 18 18 19 20 21 23 25 26 26 26 26 27 28 26 23 22 25 28 29 31 35 37 36 33 31 29 28 27 24 22 24 26 28 29 28 26 27 30 33 35 36 36 37 37 37 37 37 37 36 31 28 30 31 30 30 31 32 32 32 31 31 32 32 32 33 33 33 33 33 32 30 29 32 36 38 37 34 32 31 31 33 33 33 31
21 20 20 21 21 21 22 23 24 25 25 25 26 26 25 22 21 24 28 29 29 33 37 38 36 33 32 33 31 26 22 22 23 24 27 28 27 27 29 31 34 36 37 38 39 39 39 39 38 39 37 33 31 31 30 30 30 30 30 31 30 30 30 32 33 33 33 34 34 34 32 32 31 31 32 35 35 33 32 31 32 33 35 35 36
19 20 22 23 22 22 21 22 22 23 23 24 24 25 25 23 21 22 25 28 29 30 34 37 36 34 33 35 34 30 27 24 20 19 22 26 27 28 28 29 32 34 36 37 35 35 39 41 39 38 37 35 33 31 31 31 32 31 30 30 30 28 27 27 28 31 35 40 40 36 33 33 33 32 32 34 34 33 31 31 33 34 34 34 37
18 21 22 21 21 21 20 20 21 22 22 22 23 23 25 25 24 22 23 25 27 28 30 33 34 33 33 33 31 29 29 28 25 21 21 22 25 28 28 28 30 33 34 35 32 30 32 35 34 31 31 32 32 31 31 32 33 32 30 29 29 28 27 26 27 30 36 40 37 32 31 33 33 32 33 36 36 35 34 34 35 35 35 35 36
19 20 19 19 20 20 19 18 18 19 20 21 22 23 23 25 25 25 23 23 25 27 29 32 33 33 32 32 30 27 27 29 29 28 27 25 24 26 28 29 30 30 30 31 32 32 32 31 30 28 28 28 28 29 31 32 32 32 31 30 29 29 30 31 33 36 39 38 33 30 31 34 34 35 36 37 36 36 37 37 37 36 36 37 35
17 17 15 15 16 17 16 15 14 15 18 20 21 22 22 23 24 25 25 23 23 25 28 31 33 33 32 32 31 28 27 28 28 27 28 27 25 25 27 28 30 31 29 27 29 32 35 35 34 33 32 31 30 30 32 32 32 31 30 30 32 35 37 38 39 42 42 41 37 34 34 35 36 39 42 42 41 40 40 41 40 38 38 39 35
16 16 14 14 15 16 16 14 13 13 17 20 21 21 23 23 23 23 24 24 23 23 25 28 31 32 32 33 32 30 28 27 25 22 22 23 23 23 24 26 27 28 29 28 27 28 30 33 34 34 34 36 38 37 36 34 33 33 31 31 33 36 38 40 43 45 45 43 42 40 39 39 40 42 43 44 45 45 43 43 44 43 42 42 39
16 15 14 14 15 17 17 15 12 13 16 19 21 21 22 22 22 21 22 23 23 22 23 25 27 29 31 32 33 31 28 25 23 21 20 20 21 22 25 27 27 27 27 27 26 26 26 28 30 31 32 34 37 39 39 37 35 34 34 34 35 36 38 40 43 44 43 43 42 39 39 40 41 42 42 43 45 46 45 45 45 44 44 45 43
16 15 15 15 16 18 18 16 14 15 17 19 20 20 20 20 20 20 20 21 22 23 23 24 26 27 28 28 29 30 28 25 22 21 21 22 23 25 28 30 31 31 30 30 30 30 30 30 31 32 32 32 32 34 37 39 38 36 35 37 39 39 38 37 37 35 34 37 39 36 35 37 38 40 42 43 44 45 46 46 45 44 44 45 45
16 15 16 17 17 18 18 18 17 17 18 18 18 18 18 18 18 19 20 20 22 23 24 24 25 25 26 26 26 26 26 25 23 22 21 22 24 27 30 32 32 33 33 33 33 34 34 34 34 34 35 35 35 34 35 37 38 37 37 37 38 37 34 31 31 30 31 34 38 38 36 37 38 41 45 45 44 45 46 46 45 45 45 45 44
15 15 16 17 16 16 17 18 18 18 17 17 17 17 16 16 17 18 19 20 21 22 23 24 24 23 23 24 25 25 24 23 22 22 22 22 24 26 29 32 33 34 35 35 36 36 37 38 39 39 39 40 41 40 39 38 39 39 39 38 37 36 33 31 33 35 37 38 38 38 37 36 37 40 43 45 46 47 48 47 45 46 47 45 43
15 16 15 14 14 14 15 16 17 16 16 16 16 16 15 15 14 15 16 18 20 21 22 23 23 22 21 22 22 23 23 22 22 22 22 23 24 25 27 29 31 32 33 35 36 37 38 39 41 42 43 44 45 44 43 42 41 41 41 40 38 38 38 37 37 39 41 41 41 41 40 39 39 39 41 45 48 49 48 46 44 44 45 44 43
15 15 14 12 12 12 14 15 17 17 16 16 15 15 15 14 12 13 15 17 18 19 21 21 21 21 21 21 20 21 21 21 21 21 21 22 23 23 24 25 27 28 30 31 32 34 36 38 40 41 43 43 44 44 43 43 42 42 41 41 40 40 41 41 41 41 42 42 43 44 43 43 42 41 42 45 48 48 46 46 45 44 45 44 42
14 14 12 11 11 11 12 15 16 16 16 16 15 15 15 13 12 12 14 14 15 17 18 19 18 18 19 19 18 18 18 18 18 19 19 19 19 20 20 21 22 23 24 25 26 28 30 32 34 36 38 39 40 41 42 42 43 43 42 42 42 41 41 41 41 42 42 43 43 43 42 41 41 41 42 46 48 46 43 42 42 43 44 45 43
12 12 11 10 11 12 13 14 14 14 15 15 14 14 14 13 12 12 13 13 14 14 15 15 15 16 16 16 15 15 15 15 15 16 16 16 15 15 16 16 17 18 19 20 21 22 24 26 27 29 31 32 34 36 38 39 41 42 43 43 42 42 42 42 42 42 42 43 42 41 39 39 39 41 43 46 49 49 47 46 47 49 50 48 43
Wind_Direction
233 230 226 225 224 224 225 225 224 222 221 222 223 222 221 220 219 220 222 222 224 228 228 227 229 228 224 221 221 223 226 224 225 229 230 230 231 226 227 232 228 221 222 221 220 225 232 234 234 231 228 231 233 232 238 242 240 238 240 248 261 268 274 284 284 288 299 300 310 319 309 311 311 304 311 315 309 314 318 320 327 335 335 326 322
237 236 231 229 227 225 225 225 225 224 223 224 224 222 222 221 219 220 221 222 222 226 228 229 231 230 226 224 223 223 226 226 225 229 231 228 228 228 229 233 231 228 228 225 223 225 227 232 235 232 229 232 234 232 232 236 238 239 242 246 248 255 270 283 286 288 295 300 307 314 313 313 311 304 306 307 303 307 310 316 324 322 324 330 316
234 240 237 233 230 228 227 227 227 225 224 225 224 223 223 223 222 221 221 223 223 225 226 228 231 231 228 227 228 226 227 227 226 229 231 229 228 227 229 233 234 232 233 231 229 228 225 227 230 230 231 232 235 234 231 232 233 233 235 239 242 247 261 275 283 287 289 292 299 306 304 304 306 304 304 305 304 307 308 312 316 310 315 331 316
223 238 243 239 235 233 231 229 230 228 227 227 226 224 223 224 226 224 222 223 225 226 225 226 230 231 229 229 230 229 228 228 227 230 232 231 231 231 232 235 237 236 237 235 233 233 230 229 226 225 229 233 235 235 233 231 232 235 240 245 252 254 256 264 274 283 287 291 296 300 300 303 306 303 303 305 303 305 305 304 309 308 310 327 322
214 230 245 246 242 240 235 232 232 231 230 229 227 226 223 223 228 229 226 223 225 228 228 226 228 230 229 229 231 229 228 227 226 229 233 234 235 236 237 240 240 239 240 238 236 236 235 234 231 227 229 232 235 235 235 236 236 237 242 247 253 257 257 261 269 277 284 289 293 298 304 306 306 302 303 305 303 303 303 302 305 305 305 317 322
213 221 237 243 244 244 241 237 235 233 233 231 229 228 225 223 226 231 231 227 225 228 230 230 229 230 229 230 231 231 228 227 228 228 230 233 237 238 238 241 243 242 243 242 240 241 241 239 236 233 231 231 232 231 233 238 238 237 240 242 246 251 255 261 267 273 279 285 290 296 301 301 301 303 305 304 302 299 297 298 301 304 304 308 314
216 219 228 235 240 244 243 240 238 236 235 234 231 229 228 225 225 229 233 232 228 227 230 233 233 232 231 231 232 233 230 229 230 230 228 230 234 236 234 238 243 245 245 244 243 242 244 244 242 239 237 236 234 232 232 236 238 238 239 240 242 246 250 257 265 270 275 282 286 289 290 288 292 299 304 306 305 301 295 292 290 296 302 305 310
220 222 225 231 238 245 246 243 242 240 238 238 235 232 231 230 229 231 234 235 232 229 228 232 235 235 233 231 231 233 233 231 231 231 230 229 232 235 234 235 238 243 245 246 244 242 241 243 244 242 242 242 239 236 235 235 236 237 239 239 239 242 246 251 258 265 270 275 278 279 280 283 289 296 301 302 302 298 290 285 285 292 299 302 307
227 226 228 235 243 250 251 247 246 244 242 241 239 236 235 235 234 235 237 236 234 232 230 230 233 237 237 234 232 232 234 234 233 232 232 230 230 234 236 237 238 241 245 246 245 243 241 240 241 241 243 245 243 240 238 238 237 237 238 240 240 244 248 252 257 264 269 272 273 275 278 282 288 293 292 287 287 287 285 284 288 293 296 298 301
231 232 231 236 245 251 253 252 251 249 246 245 244 242 240 239 237 238 239 238 236 234 233 232 231 234 238 239 236 233 234 236 236 234 233 232 232 234 237 240 241 242 246 248 247 245 243 241 240 242 246 248 244 241 240 240 240 239 240 243 244 245 249 253 257 262 267 269 270 270 271 272 275 279 279 279 281 282 284 285 287 289 291 294 298
231 235 237 238 240 247 254 256 256 255 253 250 249 248 246 244 242 242 242 241 239 237 235 234 233 232 235 239 240 237 235 236 237 236 234 233 233 236 239 242 244 245 247 249 249 248 245 243 241 244 249 250 245 241 240 240 241 242 243 245 247 248 249 252 256 259 262 264 264 264 264 264 267 271 275 278 278 276 274 279 284 286 288 291 293
238 243 247 248 243 243 251 257 259 259 259 257 255 253 251 249 247 246 245 243 241 240 237 235 234 233 233 236 239 240 239 238 238 238 236 234 234 236 240 244 246 247 248 248 249 250 248 247 243 241 247 252 250 244 241 241 241 242 244 245 247 249 250 251 253 256 258 261 261 261 261 262 266 270 273 275 276 275 276 279 283 285 285 286 287
247 245 243 251 251 248 249 251 252 256 260 262 260 257 255 253 250 249 248 246 245 243 240 237 236 234 234 235 237 239 240 240 240 239 238 237 235 236 239 243 246 248 249 249 249 249 250 250 247 242 241 247 252 250 245 243 242 242 244 245 246 248 250 251 253 254 256 258 260 261 262 265 268 271 272 275 280 283 284 284 284 284 284 284 285
248 240 234 238 243 248 251 248 244 248 257 262 262 259 257 256 254 252 250 249 248 246 242 240 239 236 235 235 236 237 239 242 242 240 238 238 237 237 239 241 244 246 248 249 249 249 250 251 250 248 243 242 248 251 249 247 246 244 244 245 247 249 250 251 253 254 254 255 258 261 264 267 269 272 274 277 281 284 284 284 284 284 283 282 282
267 243 234 231 230 236 246 250 250 251 255 258 259 259 258 257 256 253 249 246 247 249 246 243 241 239 236 235 236 237 238 240 242 242 240 239 238 239 240 241 243 245 246 248 248 249 250 250 250 250 248 245 246 248 249 248 248 248 247 247 248 250 252 252 252 254 255 256 259 261 265 267 268 271 274 277 280 282 282 282 283 282 281 281 283
300 266 237 227 226 228 233 240 246 251 253 253 252 252 254 256 256 254 249 242 240 245 247 245 242 241 239 237 237 238 239 239 241 242 242 241 239 240 240 240 242 243 245 246 248 248 249 249 249 249 249 248 247 248 248 247 246 248 249 250 251 252 253 255 255 255 256 258 260 261 262 264 267 270 272 274 276 278 278 279 279 278 280 282 287
329 302 268 239 229 227 228 229 233 239 244 245 245 244 245 248 250 254 253 245 236 236 242 245 244 242 241 239 238 237 238 239 240 240 240 240 239 238 239 239 240 242 243 244 246 247 248 247 247 247 247 248 249 249 249 246 245 245 247 249 251 252 254 256 257 258 257 257 259 261 262 263 265 269 271 272 273 273 272 273 276 275 272 274 279
359 335 305 276 251 237 231 229 229 231 234 240 243 242 241 242 242 246 250 249 241 235 235 241 244 244 243 243 241 239 238 239 240 239 238 238 237 237 238 239 240 240 242 242 243 245 247 247 247 247 246 247 249 250 249 247 245 244 245 247 250 252 253 254 257 261 262 261 260 260 262 265 266 268 271 272 273 270 267 270 274 270 264 267 270
8 355 335 308 283 263 248 238 234 231 230 236 244 244 242 243 242 242 243 245 244 239 234 235 239 242 243 244 243 242 240 239 240 239 238 237 236 236 237 238 239 240 241 242 243 244 245 247 247 247 246 246 248 249 249 247 246 245 245 245 248 252 254 254 255 257 260 264 266 265 265 266 266 268 270 271 271 268 265 268 270 265 260 263 266
14 2 350 336 313 298 283 267 252 242 236 237 243 246 244 243 243 244 243 243 246 245 239 235 236 238 241 242 243 244 242 241 241 240 238 236 235 235 235 236 238 240 241 242 243 244 245 246 247 248 247 247 247 248 248 246 245 245 245 245 247 251 252 253 254 254 254 258 265 270 270 269 268 267 269 270 270 268 266 266 267 266 264 262 262
9 6 356 347 333 321 312 300 285 269 255 247 246 247 246 243 243 244 244 246 250 248 244 242 241 239 239 239 240 241 242 242 242 240 238 236 234 233 234 235 237 239 241 243 244 244 246 247 247 248 249 248 247 246 247 246 245 244 245 246 249 251 251 249 250 253 256 258 262 265 266 267 268 268 267 269 270 270 270 269 266 264 263 260 259
351 1 359 348 338 329 317 308 301 294 284 270 260 253 246 243 243 242 241 244 250 250 247 247 247 245 243 241 239 239 240 243 244 242 239 236 234 232 233 235 236 238 240 243 244 245 245 247 248 249 249 248 247 245 244 245 244 244 245 248 249 251 251 250 249 250 254 258 260 259 258 258 260 260 259 258 260 262 266 271 272 268 264 260 256
330 343 353 351 343 335 324 312 303 299 298 296 290 279 263 250 243 241 241 242 247 254 256 255 255 252 247 244 241 239 239 242 245 245 242 237 234 233 233 235 236 237 239 243 245 245 244 245 248 250 249 248 247 245 243 243 243 243 245 247 249 249 249 249 249 248 249 250 251 250 251 251 251 251 251 251 251 249 250 258 265 267 268 267 262
315 322 333 342 344 339 331 323 314 306 303 304 308 311 299 271 250 244 247 247 246 251 257 260 263 262 257 252 247 243 240 240 242 245 243 239 236 233 232 233 235 236 239 242 245 245 243 243 245 249 250 249 247 246 245 243 242 243 244 244 246 247 246 245 244 245 246 247 247 247 249 249 250 250 250 250 250 248 247 249 252 255 259 264 267
311 309 312 321 328 332 332 328 324 318 312 308 307 310 305 275 250 243 247 249 248 250 253 255 259 263 264 263 259 253 246 241 240 243 242 239 236 234 232 231 232 235 238 241 243 245 245 246 248 251 251 250 249 247 245 243 242 242 243 243 242 242 242 242 240 241 242 244 245 247 249 251 254 256 256 255 254 254 255 256 258 259 258 260 264
311 308 304 306 310 317 323 326 326 324 320 313 305 298 289 274 256 247 244 246 249 254 254 253 254 256 262 269 272 267 258 248 242 241 243 243 238 234 232 231 231 233 238 241 242 244 245 246 249 253 254 253 251 248 245 243 242 242 241 240 240 240 240 239 238 239 240 241 243 245 249 252 255 258 260 261 260 259 259 260 262 265 265 264 266
309 309 307 305 305 307 311 317 321 325 325 318 306 296 289 282 269 254 246 246 250 254 257 258 258 257 259 268 276 275 269 260 250 241 241 244 239 231 229 232 232 233 237 239 240 242 243 244 246 249 252 254 253 250 247 244 241 240 239 238 238 238 238 239 240 240 240 241 242 245 249 252 253 254 256 260 261 260 258 258 260 263 264 265 266
308 307 306 306 305 302 300 306 313 320 324 322 313 302 293 287 277 262 252 249 250 254 259 260 259 259 260 265 271 273 270 266 259 247 240 241 240 234 230 231 233 235 238 240 243 244 246 247 246 246 246 249 250 250 248 245 241 238 237 237 237 237 237 238 239 240 240 241 242 244 245 247 249 250 251 253 255 256 256 257 259 260 262 262 261
309 307 305 306 307 302 297 298 305 312 316 318 317 311 298 290 287 280 266 255 250 251 254 253 254 259 261 263 267 269 268 265 262 258 249 239 237 240 240 239 240 244 247 249 251 250 249 248 247 247 247 247 249 249 247 244 243 241 239 238 237 237 237 237 238 238 239 240 242 243 243 243 245 248 249 249 251 253 255 257 258 257 258 258 258
306 307 307 305 305 303 300 297 297 301 309 311 312 313 306 294 289 287 280 269 260 256 255 253 253 257 258 256 258 262 264 265 267 269 263 245 236 244 256 262 267 268 263 260 258 254 251 250 249 250 250 248 246 245 242 241 242 243 242 242 240 239 238 238 238 239 240 241 242 243 243 244 244 245 247 250 252 255 256 257 256 254 254 255 257
303 305 306 305 302 302 302 301 297 295 300 304 305 306 307 304 296 291 287 282 274 266 264 262 262 261 258 256 256 258 260 262 265 268 270 263 253 256 266 272 277 278 270 261 257 252 249 249 249 250 249 245 242 242 241 241 241 241 242 243 244 243 243 242 242 241 242 243 244 244 244 245 246 246 246 248 251 254 256 256 255 253 252 253 255
301 302 302 302 301 301 301 302 300 296 296 297 299 300 301 303 303 298 295 292 285 277 274 273 271 268 263 259 260 260 261 262 261 262 266 266 263 266 270 272 273 273 265 257 253 250 249 249 248 247 245 241 240 241 242 241 242 242 241 242 243 244 245 246 246 246 246 246 247 247 247 248 248 248 248 248 249 252 254 254 254 254 251 250 252
297 299 300 299 299 300 300 299 299 299 299 297 295 294 297 299 301 300 300 300 296 289 285 284 283 276 268 264 263 264 264 265 266 266 265 263 261 264 268 269 268 264 256 250 248 248 250 250 247 246 244 240 239 241 241 242 242 242 241 242 243 244 245 246 248 249 250 249 248 248 249 250 250 251 252 251 251 253 254 253 254 254 251 247 248
295 295 297 297 297 298 298 298 298 300 301 300 297 293 290 291 295 298 301 302 302 299 297 299 301 294 279 268 265 264 265 267 270 272 270 265 260 259 260 262 262 257 250 247 247 248 249 249 245 244 244 242 239 239 239 240 241 241 241 243 244 245 245 245 246 248 250 250 248 248 249 249 249 251 252 253 253 253 252 251 250 248 246 242 241
293 292 293 294 294 295 296 297 298 300 300 300 299 296 292 288 290 294 298 301 302 302 301 304 308 307 298 283 273 268 266 266 267 271 273 269 261 255 253 255 255 251 245 243 245 247 249 248 245 243 244 243 242 241 240 239 239 239 240 242 243 243 243 242 243 244 246 247 246 247 249 250 251 251 251 251 250 249 248 246 244 241 240 238 236
291 291 292 292 291 292 293 294 296 298 299 298 296 294 295 295 292 290 291 294 298 300 301 302 305 308 308 302 294 287 281 276 271 269 270 270 264 255 251 251 252 250 246 243 244 247 249 250 249 246 244 244 244 244 242 242 242 243 243 243 243 242 243 243 244 245 247 248 247 246 247 248 249 250 250 249 247 245 244 242 240 239 237 235 233
290 290 291 290 289 290 291 292 293 294 296 297 296 293 293 294 293 290 288 290 294 297 299 301 303 303 305 308 310 307 299 290 282 275 270 266 262 257 253 252 252 252 250 248 246 247 249 250 250 250 249 247 246 246 245 245 246 247 248 248 248 247 247 247 248 248 248 249 248 247 246 244 244 246 248 248 246 243 240 239 238 238 237 235 236
290 289 289 288 286 286 288 290 291 291 292 295 297 295 292 291 292 291 287 287 289 291 295 299 303 302 300 302 307 308 301 293 293 290 281 270 260 255 253 252 252 252 252 252 251 251 251 251 251 251 251 250 248 247 247 246 247 248 248 249 251 253 253 252 251 251 251 251 250 247 245 244 243 243 243 246 246 243 238 235 236 237 239 239 240
289 289 288 287 283 282 284 286 287 287 289 292 294 295 293 291 292 291 287 286 286 287 290 296 301 302 298 297 300 303 300 293 289 290 289 282 272 263 256 252 251 250 251 252 253 254 256 257 256 254 252 251 248 246 246 246 248 249 249 248 249 250 251 251 250 250 251 253 252 248 243 243 244 242 240 242 244 243 240 236 234 235 237 241 243
287 288 288 285 280 278 280 282 283 284 285 287 289 293 294 293 293 292 289 286 287 288 290 293 296 298 297 296 297 300 299 292 282 274 276 282 281 276 269 262 257 253 251 251 252 252 254 257 258 257 254 252 250 248 247 247 247 248 248 248 248 248 248 249 248 248 250 251 250 245 243 244 243 240 238 240 242 243 242 240 237 236 236 239 244
286 286 286 283 279 277 278 279 280 281 281 283 286 290 292 293 293 293 292 288 285 286 288 291 294 296 296 296 297 297 295 293 287 279 272 271 273 275 274 271 267 261 255 251 250 249 249 250 251 251 252 253 253 252 250 248 247 247 248 248 247 247 246 247 247 248 249 250 249 245 243 244 242 240 240 241 242 242 241 240 239 239 240 242 244
284 284 284 281 279 279 278 278 279 278 278 281 284 288 291 293 293 293 294 293 288 284 284 288 293 296 296 297 299 299 295 293 291 286 279 275 273 271 271 272 272 270 267 261 256 252 250 248 247 247 248 249 250 251 252 251 249 248 248 247 247 248 249 249 249 249 250 251 251 249 245 243 242 243 245 244 243 240 239 239 241 241 242 245 244
286 282 279 277 277 277 277 277 278 278 278 280 283 285 289 293 294 293 294 296 295 291 287 287 291 294 296 297 299 300 299 296 292 287 281 279 278 274 269 268 269 269 269 268 267 262 258 255 254 253 252 249 248 247 248 250 251 251 250 248 248 248 249 250 252 253 256 259 260 256 252 249 247 247 248 249 247 244 241 239 241 242 244 246 245
287 281 277 275 276 278 278 277 277 278 279 280 282 284 287 292 295 296 296 297 298 298 296 294 295 296 296 296 297 299 300 298 291 281 271 265 264 263 260 256 253 252 253 254 255 255 254 254 255 256 256 255 254 251 250 250 251 250 249 248 247 246 246 249 253 256 260 265 265 260 256 255 253 250 250 251 251 249 245 241 241 243 245 245 243
286 280 279 279 279 280 280 279 278 281 284 284 283 285 288 292 295 297 299 300 301 301 301 301 302 303 303 301 299 299 300 297 291 282 271 261 254 253 254 253 250 248 248 247 247 248 249 250 252 254 255 255 254 251 249 248 248 246 245 247 248 248 248 252 256 258 261 264 264 260 258 257 255 252 251 252 252 250 248 245 244 243 242 244 245
287 280 280 281 281 279 278 277 277 279 283 284 285 286 289 292 294 296 299 302 304 304 304 304 305 307 307 306 304 301 299 295 289 281 273 265 257 254 255 255 254 253 252 251 250 250 251 251 252 254 254 252 249 248 248 248 247 247 247 250 253 254 254 255 258 258 258 260 262 262 261 260 257 254 253 252 249 248 248 248 247 244 242 245 249
289 283 281 281 279 276 274 274 275 275 277 279 282 285 287 289 291 294 297 300 304 307 307 307 307 307 308 307 306 303 300 296 288 280 272 266 261 258 257 257 257 257 257 257 257 256 255 254 253 254 255 254 254 254 253 252 251 251 252 253 255 256 256 256 258 258 258 260 262 262 260 258 255 253 251 247 244 245 247 248 246 243 243 246 251
291 287 283 280 278 276 273 272 273 274 274 276 279 283 285 288 289 291 294 298 303 306 307 308 310 311 311 309 306 303 300 296 290 283 277 272 269 267 264 263 262 261 261 262 262 262 260 259 258 258 259 259 259 259 258 256 254 254 254 254 254 253 252 251 253 256 258 260 262 262 260 257 255 251 249 246 244 244 245 245 243 242 243 246 250
293 291 287 282 279 278 275 273 272 273 274 276 279 282 285 287 288 289 293 300 305 307 307 308 311 313 313 311 308 304 300 297 292 287 284 281 279 277 275 274 272 271 270 269 269 268 267 266 265 264 264 263 263 262 261 260 259 257 256 255 254 253 252 252 252 254 256 258 261 262 263 262 259 254 250 248 247 245 243 241 240 242 245 247 250
296 294 291 286 282 279 277 275 274 275 276 277 279 282 284 287 289 292 296 301 304 305 307 310 312 312 311 310 308 306 303 300 297 295 294 293 292 290 289 288 286 285 283 282 281 280 278 277 275 273 271 270 268 267 265 264 262 261 260 258 256 255 253 252 252 253 254 256 259 261 262 263 262 258 252 248 247 245 242 240 240 244 249 251 250
303 298 292 287 284 281 278 276 275 274 275 277 280 282 284 286 288 291 296 300 302 304 309 313 316 315 313 310 308 308 308 307 307 307 308 309 308 307 307 304 303 302 300 299 298 297 295 292 290 287 284 281 278 275 272 270 267 265 264 262 260 257 255 253 252 253 254 257 259 260 261 262 262 259 255 252 251 250 249 248 249 252 255 252 245